Wind_Speed
29 28 29 31 31 31 30 28 27 25 22 20 19 16 14 11 9 8 7 8 7 7 8 9 10 11 11 11 12 14 15 15 15 15 16 16 16 15 15 15 14 14 15 15
29 29 30 32 33 32 30 28 27 26 24 23 23 20 17 14 12 10 9 8 9 9 8 9 10 11 12 12 13 14 15 16 16 16 16 16 17 17 17 16 16 16 17 17
28 28 29 29 30 32 30 28 28 27 25 24 24 21 19 16 14 13 10 9 9 9 9 10 10 11 12 13 13 14 15 15 16 16 17 18 18 18 18 18 18 19 20 21
27 26 28 24 25 29 31 31 30 28 27 26 23 21 17 15 15 13 12 12 12 11 11 11 12 13 13 14 15 15 15 16 17 17 18 18 19 19 20 20 21 21 22 23
25 26 25 23 24 27 30 30 29 27 27 27 25 22 20 18 17 15 14 14 14 14 13 13 14 14 15 15 16 16 16 17 18 19 20 20 21 22 22 22 23 23 24 25
24 24 24 23 24 27 28 29 27 27 27 27 25 23 21 20 18 17 16 16 17 16 16 16 16 16 16 16 17 18 18 19 20 21 21 22 23 24 25 25 25 26 26 27
23 23 23 22 23 26 29 28 27 27 27 26 25 23 23 22 20 19 18 17 18 19 17 17 18 18 18 18 19 20 20 21 22 23 23 24 24 26 26 27 27 27 28 28
20 20 21 22 22 25 25 25 25 27 27 26 25 25 24 23 22 20 19 18 19 20 20 19 20 19 19 20 21 22 22 23 23 24 25 26 25 26 28 28 28 30 30 30
19 19 19 19 20 22 23 23 24 25 27 28 27 26 23 20 21 21 21 21 21 21 21 21 21 20 20 21 22 23 24 24 25 26 27 27 27 28 29 29 30 31 32 33
17 18 18 19 20 21 22 22 23 23 23 25 26 25 25 25 24 23 22 23 23 22 21 21 23 22 22 22 24 25 25 25 26 28 29 29 29 30 31 32 33 33 34 35
14 15 17 18 19 20 21 21 21 21 22 22 22 21 22 23 23 22 23 23 24 23 22 22 24 24 24 25 25 25 26 27 28 29 30 31 31 32 33 34 35 36 36 37
13 13 15 16 17 18 19 21 22 21 20 19 20 20 20 21 22 22 22 22 23 23 23 23 24 25 25 26 27 27 28 28 29 30 30 32 32 34 35 37 37 37 38 39
12 12 13 15 15 15 15 16 17 17 17 18 19 18 18 20 21 21 21 22 23 23 23 24 25 26 26 26 27 28 29 30 31 32 33 34 35 36 37 38 39 39 41 42
11 11 12 12 13 14 13 13 13 13 13 15 18 18 18 18 20 20 21 22 22 23 23 25 26 27 28 29 29 30 31 31 32 33 35 36 37 38 39 41 41 41 42 43
10 10 10 10 10 11 11 11 11 11 12 14 16 17 18 19 20 20 21 22 23 24 25 26 27 28 29 30 31 32 33 33 34 35 36 37 38 38 39 40 41 41 42 42
11 10 10 10 11 11 10 10 10 12 13 14 15 16 17 18 19 20 21 21 23 24 25 26 27 28 29 30 31 32 33 33 34 35 36 37 38 39 39 40 41 41 41 42
10 10 10 10 10 9 10 11 11 13 14 14 14 15 15 17 18 19 20 22 23 24 25 26 27 28 29 30 31 32 33 34 34 35 36 37 38 39 40 41 41 41 42 43
10 10 10 10 9 10 10 10 11 12 12 13 14 14 15 16 17 18 20 21 21 22 24 25 27 28 28 29 30 31 32 33 35 36 37 38 38 39 39 40 41 42 43 45
10 10 10 10 10 10 11 11 11 12 12 13 14 15 16 17 18 18 19 20 21 22 23 24 25 26 28 29 30 31 32 34 35 36 37 38 39 40 41 42 43 44 45 45
11 11 11 10 10 10 10 11 11 13 14 14 15 15 15 16 17 19 20 21 22 23 24 25 26 27 28 30 31 32 33 35 36 37 38 39 40 41 42 43 44 44 44 44
11 11 11 11 11 11 12 12 12 13 13 14 15 16 16 17 17 18 19 21 23 24 25 26 27 28 30 31 32 33 34 35 36 37 38 39 40 40 41 42 43 43 44 44
11 11 11 12 12 13 13 13 14 14 15 16 17 18 18 19 20 21 22 23 24 25 25 26 28 29 30 31 32 33 34 35 36 37 38 39 40 41 41 42 42 42 43 44
12 12 12 13 13 13 15 15 16 16 17 18 19 19 20 21 21 22 23 24 25 26 27 28 29 30 31 32 33 34 35 36 37 37 38 39 39 40 41 41 41 42 42 42
13 13 13 14 15 15 16 16 17 18 19 19 20 20 21 22 23 24 25 26 27 28 29 30 30 31 32 33 34 35 36 37 37 37 38 38 39 39 40 40 39 40 40 41
14 14 15 15 16 17 17 18 18 19 20 21 22 22 23 24 25 26 27 28 28 29 30 31 32 33 34 35 35 36 36 37 37 37 37 37 38 38 38 38 38 39 39 40
15 16 17 18 18 19 19 19 20 21 22 23 24 25 26 27 28 28 29 29 30 31 31 32 33 34 34 35 35 36 35 35 35 35 36 36 36 35 36 36 36 36 36 36
17 17 18 19 20 21 22 22 23 24 25 25 26 27 28 29 29 30 31 31 31 32 32 33 33 33 33 33 34 34 33 33 34 34 34 34 33 34 34 34 33 33 33 32
Wind_Direction
256 251 244 242 244 247 248 250 252 253 254 257 256 258 261 256 254 232 213 211 220 223 218 214 212 211 210 209 209 209 209 211 213 216 219 223 228 233 238 240 244 248 253 259
257 254 249 244 243 246 246 249 251 252 253 254 255 257 255 258 259 239 220 220 225 227 226 221 218 219 220 218 218 217 217 219 222 225 228 231 236 240 243 246 250 254 259 262
254 251 251 247 242 242 244 247 249 249 250 250 250 251 253 250 249 245 237 232 234 236 232 226 226 226 226 226 225 224 225 227 230 233 236 239 242 245 248 252 256 261 265 266
255 251 249 247 242 240 242 243 246 248 248 248 248 249 250 245 243 242 243 237 235 236 234 231 233 233 232 231 231 232 232 235 238 240 243 245 246 248 251 255 260 263 267 268
255 252 250 243 240 240 241 243 246 249 247 244 247 250 247 247 245 241 242 242 241 240 237 236 235 234 234 236 237 238 238 240 243 246 248 250 251 254 255 258 261 265 267 269
254 255 252 246 242 240 241 244 246 250 249 244 248 248 244 244 242 239 239 245 243 241 240 239 240 238 237 239 240 241 243 244 246 248 251 254 256 257 258 261 264 267 269 270
253 254 253 249 240 242 244 245 246 248 247 246 246 248 241 241 244 242 239 242 242 240 239 240 242 243 241 242 243 245 246 249 251 252 254 254 257 260 261 263 267 269 271 273
252 254 255 254 249 246 244 242 243 244 245 244 247 244 241 242 240 239 238 239 241 238 238 238 240 243 243 245 246 247 251 252 254 257 259 259 260 263 263 265 269 270 272 275
251 253 256 254 251 246 247 247 246 248 247 246 247 247 247 243 234 235 235 237 241 241 240 240 242 245 246 245 246 249 254 256 260 261 262 264 264 268 269 270 272 275 276 276
254 256 257 257 254 252 250 249 250 248 247 246 249 247 245 243 241 238 237 242 243 242 241 244 248 250 250 250 250 252 256 260 263 265 266 267 268 271 272 272 273 275 276 277
266 262 260 260 258 254 251 250 250 250 247 246 243 243 242 243 240 236 235 241 239 240 241 245 249 251 253 255 257 259 261 264 265 269 271 272 273 273 274 275 275 277 278 279
266 261 260 260 258 258 256 252 250 246 242 238 234 235 240 243 240 237 237 238 239 242 244 246 249 252 255 258 259 261 263 267 268 270 273 274 275 277 277 277 278 279 280 280
264 264 263 258 254 249 249 251 244 241 236 234 234 234 237 237 235 236 239 240 240 243 246 248 251 254 257 260 262 264 266 268 269 272 274 276 278 279 280 280 280 280 281 281
262 263 264 261 255 247 243 239 235 234 237 238 238 239 238 238 237 236 238 242 245 246 249 252 254 257 260 262 264 265 267 269 271 273 274 276 278 279 279 281 282 282 282 281
257 262 263 260 251 247 243 239 237 238 239 236 236 238 240 239 239 239 242 246 248 249 251 253 256 259 262 265 266 267 268 270 272 274 275 276 278 280 282 282 283 283 282 282
255 258 258 257 254 250 245 239 238 239 242 243 242 243 243 244 246 247 247 249 251 253 254 256 258 260 262 265 267 268 269 272 275 277 278 279 279 280 281 282 283 284 284 284
252 253 253 257 251 248 247 245 242 243 243 244 245 244 245 248 249 251 252 255 255 256 258 260 262 263 265 267 269 270 272 274 277 278 279 280 281 282 283 283 284 285 285 286
253 256 258 252 253 249 246 245 245 249 248 245 246 247 250 253 255 256 256 257 258 259 262 264 266 267 268 270 273 274 275 276 278 280 281 282 283 284 285 285 285 285 286 286
251 253 253 251 253 254 252 250 251 250 250 248 250 253 256 257 258 260 262 262 264 265 267 269 270 271 273 275 276 277 277 278 279 280 281 283 284 285 285 285 286 287 287 287
246 251 255 255 258 259 256 256 258 259 257 256 259 260 261 262 262 263 264 266 267 269 271 273 274 275 276 278 278 279 280 281 282 283 284 285 285 285 285 286 286 287 287 288
248 251 253 257 259 261 259 258 261 263 263 265 266 268 268 269 270 269 270 271 272 274 275 276 277 278 279 280 282 283 284 284 284 285 286 286 286 286 287 287 288 288 289 290
249 250 254 259 263 262 259 260 262 266 269 272 273 275 275 275 275 277 279 281 281 281 282 282 282 282 283 284 285 285 285 286 287 288 289 289 289 290 290 290 290 290 291 291
251 255 258 261 262 264 266 267 270 272 274 275 277 278 277 278 279 281 282 283 285 285 285 285 285 286 287 287 287 287 288 288 289 290 290 290 290 291 291 291 291 292 293 293
259 261 264 266 267 270 272 274 275 275 276 276 277 278 279 281 283 284 284 285 285 286 286 286 285 286 287 287 287 288 288 289 289 290 291 291 291 291 291 292 292 294 294 294
265 266 268 271 272 274 277 277 276 277 278 280 280 281 282 283 284 285 285 285 285 286 286 285 285 285 286 287 288 289 290 290 291 291 292 293 293 293 293 292 293 294 295 296
271 272 273 273 275 278 279 280 280 280 281 283 284 285 285 286 286 286 286 285 285 286 286 287 287 287 287 288 288 290 291 291 291 293 294 294 294 293 293 293 294 296 297 298
271 274 275 275 277 278 280 282 283 283 284 285 286 287 288 288 288 287 287 288 288 289 289 289 289 289 288 289 290 290 291 292 293 294 294 294 294 294 295 296 298 299 300 300
Height
5789 5790 5792 5794 5796 5798 5799 5801 5803 5806 5808 5811 5811 5812 5814 5815 5816 5817 5818 5819 5821 5822 5823 5824 5825 5826 5828 5829 5831 5833 5835 5837 5839 5841 5842 5844 5845 5846 5847 5848 5849 5849 5850 5850
5782 5783 5784 5786 5789 5791 5794 5796 5798 5800 5803 5805 5806 5808 5809 5811 5812 5814 5815 5816 5818 5819 5820 5821 5822 5824 5825 5827 5829 5830 5832 5834 5836 5837 5839 5840 5841 5842 5843 5843 5844 5845 5845 5845
5773 5775 5775 5778 5782 5785 5787 5789 5791 5793 5797 5798 5800 5802 5804 5805 5807 5809 5810 5812 5814 5816 5817 5818 5819 5821 5822 5824 5826 5827 5829 5830 5832 5833 5834 5835 5836 5837 5838 5838 5839 5839 5839 5839
5765 5768 5769 5775 5776 5777 5779 5781 5784 5787 5789 5791 5794 5796 5798 5800 5801 5803 5805 5807 5809 5811 5813 5814 5816 5817 5819 5820 5821 5823 5825 5826 5827 5829 5830 5830 5831 5832 5832 5832 5833 5833 5833 5832
5759 5760 5763 5767 5769 5770 5772 5774 5777 5780 5782 5784 5788 5790 5793 5794 5796 5798 5801 5802 5804 5806 5807 5809 5811 5812 5814 5815 5817 5819 5820 5821 5822 5823 5824 5825 5825 5826 5826 5826 5826 5825 5825 5825
5753 5754 5756 5761 5762 5763 5767 5768 5771 5773 5775 5778 5781 5783 5786 5788 5790 5792 5795 5797 5798 5800 5802 5804 5805 5806 5808 5810 5812 5813 5815 5815 5816 5817 5818 5818 5819 5819 5819 5819 5818 5818 5817 5817
5747 5748 5749 5753 5755 5758 5761 5763 5765 5767 5769 5771 5773 5776 5779 5781 5783 5785 5788 5790 5792 5794 5796 5798 5800 5801 5803 5804 5806 5807 5808 5809 5810 5810 5810 5811 5811 5810 5810 5810 5810 5810 5809 5808
5741 5742 5746 5746 5748 5751 5752 5755 5757 5759 5762 5764 5767 5768 5770 5772 5775 5779 5781 5784 5786 5788 5790 5792 5794 5795 5796 5798 5799 5800 5801 5802 5802 5803 5802 5802 5802 5802 5801 5801 5801 5801 5800 5799
5737 5739 5738 5739 5741 5743 5745 5748 5750 5752 5755 5757 5759 5761 5763 5764 5767 5772 5775 5777 5780 5782 5784 5785 5787 5788 5789 5791 5792 5793 5794 5794 5795 5795 5795 5795 5794 5794 5794 5793 5793 5792 5791 5790
5731 5732 5733 5734 5735 5737 5739 5741 5743 5746 5747 5750 5752 5753 5756 5759 5762 5764 5768 5771 5773 5775 5777 5778 5779 5781 5782 5783 5785 5786 5786 5786 5786 5786 5786 5786 5786 5786 5785 5784 5783 5782 5780 5779
5726 5728 5728 5729 5730 5732 5733 5735 5737 5739 5741 5743 5745 5747 5750 5753 5755 5758 5761 5764 5766 5768 5770 5772 5773 5774 5775 5776 5777 5778 5778 5778 5778 5778 5778 5777 5777 5776 5775 5775 5773 5772 5770 5769
5723 5723 5724 5725 5725 5726 5726 5727 5730 5732 5735 5737 5739 5741 5744 5746 5748 5751 5754 5756 5758 5761 5763 5765 5766 5767 5768 5768 5769 5770 5770 5770 5770 5770 5769 5769 5768 5767 5765 5764 5762 5761 5758 5757
5718 5718 5719 5720 5721 5721 5722 5722 5723 5725 5728 5731 5733 5735 5737 5740 5742 5745 5747 5750 5752 5754 5756 5757 5759 5760 5760 5761 5761 5761 5761 5762 5761 5761 5760 5759 5758 5756 5755 5753 5751 5749 5747 5745
5714 5715 5715 5716 5717 5717 5718 5718 5719 5721 5723 5725 5728 5730 5732 5734 5737 5739 5741 5743 5745 5747 5748 5749 5750 5751 5752 5752 5752 5752 5752 5752 5752 5751 5750 5749 5747 5746 5744 5742 5739 5737 5734 5732
5710 5711 5712 5712 5713 5714 5714 5715 5716 5718 5719 5721 5723 5725 5727 5729 5731 5732 5734 5736 5738 5740 5741 5742 5743 5743 5743 5744 5743 5743 5743 5742 5742 5741 5739 5738 5736 5734 5732 5730 5728 5725 5723 5720
5706 5707 5708 5708 5709 5710 5711 5712 5713 5714 5716 5717 5718 5720 5721 5723 5725 5726 5728 5730 5731 5732 5733 5734 5734 5734 5734 5734 5734 5733 5733 5732 5731 5730 5728 5727 5725 5723 5721 5718 5716 5713 5710 5707
5702 5703 5704 5705 5705 5706 5707 5708 5709 5710 5712 5713 5714 5715 5716 5718 5719 5720 5722 5723 5724 5725 5726 5726 5726 5726 5726 5725 5724 5723 5722 5722 5720 5719 5717 5715 5713 5711 5708 5706 5703 5700 5697 5694
5698 5699 5700 5701 5702 5703 5704 5705 5706 5707 5707 5709 5710 5711 5712 5713 5713 5714 5715 5716 5716 5717 5717 5717 5717 5717 5717 5716 5715 5714 5713 5712 5710 5708 5706 5704 5702 5699 5696 5694 5691 5688 5684 5680
5695 5696 5697 5697 5698 5699 5700 5701 5702 5703 5703 5704 5705 5706 5706 5707 5708 5708 5708 5709 5709 5709 5709 5709 5709 5708 5708 5707 5706 5704 5703 5701 5699 5697 5695 5693 5690 5687 5684 5681 5678 5674 5670 5666
5691 5692 5693 5694 5695 5695 5696 5697 5697 5698 5699 5700 5701 5701 5701 5702 5702 5702 5702 5702 5702 5702 5701 5701 5700 5699 5698 5697 5695 5694 5692 5691 5688 5686 5683 5680 5678 5674 5671 5668 5664 5660 5656 5652
5687 5688 5689 5690 5691 5691 5692 5693 5693 5694 5694 5695 5695 5696 5696 5696 5696 5695 5695 5695 5694 5693 5692 5691 5690 5689 5688 5687 5685 5683 5681 5679 5677 5674 5671 5668 5665 5661 5658 5654 5650 5646 5642 5638
5683 5684 5685 5685 5686 5687 5688 5688 5689 5689 5689 5689 5689 5689 5689 5689 5689 5688 5687 5687 5686 5685 5683 5682 5681 5680 5678 5677 5675 5672 5670 5667 5665 5662 5658 5655 5652 5648 5644 5641 5637 5633 5628 5624
5678 5679 5680 5681 5681 5682 5683 5683 5683 5683 5683 5683 5683 5683 5682 5682 5681 5680 5679 5678 5677 5676 5674 5673 5671 5670 5668 5666 5663 5661 5658 5655 5652 5649 5646 5642 5639 5635 5631 5627 5623 5619 5615 5610
5674 5674 5675 5676 5676 5677 5677 5677 5677 5677 5677 5677 5676 5675 5675 5674 5673 5672 5671 5669 5668 5666 5665 5663 5661 5659 5657 5654 5652 5649 5647 5644 5640 5637 5633 5630 5626 5622 5618 5614 5610 5606 5602 5597
5669 5669 5670 5670 5671 5671 5671 5671 5671 5671 5670 5669 5668 5667 5667 5665 5664 5663 5661 5660 5658 5656 5654 5652 5650 5648 5645 5643 5640 5637 5634 5631 5628 5625 5621 5617 5613 5609 5606 5602 5598 5594 5589 5585
5664 5664 5664 5664 5664 5664 5664 5664 5663 5663 5662 5661 5660 5659 5657 5656 5655 5653 5651 5649 5648 5645 5643 5641 5638 5636 5633 5631 5628 5625 5622 5619 5616 5612 5609 5605 5601 5597 5594 5590 5586 5581 5577 5573
5658 5658 5658 5657 5657 5657 5656 5656 5655 5654 5653 5652 5651 5649 5648 5646 5644 5643 5641 5639 5637 5634 5632 5630 5627 5624 5622 5619 5616 5614 5610 5607 5604 5601 5597 5594 5590 5586 5582 5579 5575 5571 5567 5563